Location: Chuathbaluk
(61.5726°N, 159.2454°W)
Time: 13:20:28
(UTC+00:00)

RS-15 - Visible Passes

Search period start: 16 January 2021 00:00
Search period end: 26 January 2021 00:00
Orbit: 1891 x 2153 km, 64.8° (Epoch: 15 January)

Date Brightness Start Highest point End Pass type
(mag) Time Alt. Az. Time Alt. Az. Time Alt. Az.
16 Jan 8.1 04:09:13 10° WNW 04:20:45 89° NE 04:32:50 10° ESE visible
16 Jan 8.6 06:21:38 10° NW 06:32:37 53° WSW 06:43:00 13° SSE visible
16 Jan 9.7 08:34:37 10° NW 08:42:17 21° W 08:50:09 10° SW visible
17 Jan 8.1 03:33:06 10° WNW 03:44:35 84° NNE 03:56:41 10° ESE visible
17 Jan 8.5 05:45:36 10° NW 05:56:49 60° SW 06:08:32 10° SSE visible
17 Jan 9.5 07:58:14 10° NW 08:06:57 26° WSW 08:15:57 10° SSW visible
18 Jan 8.1 02:56:56 10° WNW 03:08:24 80° NNE 03:20:27 10° ESE visible
18 Jan 8.3 05:09:33 10° NW 05:20:56 68° SW 05:32:51 10° SSE visible
18 Jan 9.3 07:22:00 10° NW 07:31:32 31° WSW 07:41:23 10° SSW visible
19 Jan 8.2 04:33:30 10° WNW 04:44:59 76° SW 04:57:00 10° SE visible
19 Jan 9.1 06:45:52 10° NW 06:56:00 37° WSW 07:06:32 10° S visible
19 Jan 10.1 09:01:13 10° WNW 09:04:35 12° W 09:08:00 10° WSW visible
20 Jan 8.2 03:57:26 10° WNW 04:08:58 83° SW 04:21:03 10° SE visible
20 Jan 9.0 06:09:47 10° NW 06:20:24 44° WSW 06:31:26 10° S visible
20 Jan 10.0 08:23:33 10° WNW 08:29:30 16° W 08:35:33 10° WSW visible
21 Jan 8.2 03:21:21 10° WNW 03:32:52 90° SSW 03:44:58 10° ESE visible
21 Jan 8.8 05:33:44 10° NW 05:44:42 52° WSW 05:56:07 10° SSE visible
21 Jan 9.9 07:46:48 10° NW 07:54:18 20° W 08:01:58 10° SW visible
21 Jan 10.5 18:09:22 10° E 18:11:25 11° E 18:13:29 10° ENE visible
22 Jan 8.2 02:45:13 10° WNW 02:56:44 85° NNE 03:08:49 10° ESE visible
22 Jan 8.6 04:57:42 10° NW 05:08:54 59° SW 05:20:37 10° SSE visible
22 Jan 9.7 07:10:23 10° NW 07:18:58 25° W 07:27:50 10° SSW visible
23 Jan 8.5 04:21:40 10° NW 04:33:02 67° SW 04:44:56 10° SSE visible
23 Jan 9.5 06:34:08 10° NW 06:43:34 31° WSW 06:53:19 10° SSW visible
24 Jan 8.4 03:45:37 10° WNW 03:57:06 75° SW 04:09:07 10° SE visible
24 Jan 9.3 05:57:59 10° NW 06:08:03 37° WSW 06:18:30 10° S visible
24 Jan 10.3 08:13:46 10° WNW 08:16:33 11° W 08:19:22 10° W visible
25 Jan 8.3 03:09:32 10° WNW 03:21:05 82° SW 03:33:10 10° SE visible
25 Jan 9.1 05:21:54 10° NW 05:32:27 43° WSW 05:43:26 10° S visible
25 Jan 10.2 07:35:49 10° WNW 07:41:29 15° W 07:47:15 10° WSW visible
25 Jan 10.4 17:52:58 10° ESE 17:58:26 15° E 18:04:01 10° ENE visible
